Wind_Speed
11 12 14 15 16 16 17 17 18 18 19 19 20 23 25 26 28 31 35 38 42 46 49 52 54 57 61 66 70 74 77 80 83 85 87 88 86 84 82 81 80 78 74 69
12 13 14 15 15 15 15 16 17 18 19 20 21 23 26 27 30 34 37 41 44 47 50 53 56 59 64 68 72 76 79 81 84 86 88 87 84 82 81 80 78 74 70 65
12 13 14 14 14 14 15 16 18 19 20 22 23 23 27 29 33 36 39 42 45 48 51 54 57 61 65 70 73 77 79 82 85 87 87 84 81 80 79 77 74 70 66 64
11 12 13 13 14 15 16 17 19 21 22 24 26 25 29 31 35 38 41 43 46 49 52 55 59 63 67 71 74 77 80 83 86 87 85 82 80 79 78 76 72 67 65 65
10 11 12 13 14 16 17 19 21 22 23 25 27 28 31 34 36 39 42 44 47 50 53 56 60 64 68 72 75 77 81 83 85 85 83 80 79 79 77 74 69 66 65 67
9 11 12 14 16 18 19 20 21 23 24 26 29 31 33 35 37 39 42 45 48 51 54 57 61 65 69 72 75 78 81 83 84 82 80 79 78 77 75 72 68 66 67 69
9 11 13 16 18 20 22 23 24 25 26 28 30 31 34 35 37 41 44 47 49 52 55 58 62 66 70 73 75 78 80 82 82 80 79 78 77 76 74 71 69 69 70 73
10 12 14 16 19 21 24 26 29 30 30 29 30 31 33 36 39 42 45 47 49 52 55 59 62 66 70 73 75 78 80 81 81 79 77 76 75 74 72 71 70 72 74 77
10 12 15 17 19 22 24 27 29 31 32 33 33 35 37 40 41 43 46 48 50 53 56 59 63 67 70 73 75 77 79 80 79 77 75 74 73 72 71 71 71 73 76 78
10 12 15 17 20 23 26 28 31 34 37 38 38 39 42 42 43 44 46 48 51 53 56 60 64 67 70 73 75 77 79 79 77 75 73 72 71 70 71 71 72 74 77 77
9 11 14 16 20 23 26 28 31 33 36 40 42 42 44 45 46 46 48 49 51 53 56 60 64 67 70 72 74 76 78 77 75 73 71 70 69 69 70 71 72 74 76 75
7 9 12 16 19 23 25 28 31 34 36 39 42 44 47 48 49 49 49 50 52 54 57 60 64 67 70 72 74 75 76 75 73 71 69 68 67 68 69 70 71 73 75 75
4 7 10 14 18 21 24 27 30 33 37 40 43 45 50 51 52 51 51 52 53 55 57 60 64 67 70 71 73 74 75 74 71 69 68 66 66 66 68 70 71 72 73 74
3 6 9 13 16 20 23 27 30 34 37 40 44 47 50 54 55 55 54 54 54 55 57 60 64 67 69 71 72 73 74 72 69 67 66 65 64 65 67 69 70 71 72 73
6 7 10 13 16 19 23 26 30 33 37 40 44 48 52 55 58 58 56 56 55 56 58 60 64 67 69 70 71 72 72 70 68 66 65 64 63 64 65 67 69 70 71 72
9 10 12 14 17 19 22 25 29 33 37 41 45 48 53 56 59 60 59 58 57 57 58 61 64 66 68 69 70 71 71 69 67 65 64 63 62 62 63 65 67 68 69 70
12 13 14 15 18 20 21 25 28 32 36 41 45 49 54 57 60 62 62 60 58 58 59 61 63 66 67 68 69 69 69 68 66 64 63 62 61 61 62 63 65 66 66 68
15 16 16 17 19 22 25 27 29 31 36 40 44 48 53 57 61 64 65 63 60 59 59 60 63 65 66 67 68 68 68 67 65 63 62 60 60 60 61 62 63 64 65 66
19 19 20 21 22 23 26 29 32 34 36 40 44 48 53 57 61 64 67 65 62 60 59 60 63 64 65 66 67 67 67 66 64 62 60 59 59 59 60 60 61 62 63 64
22 22 22 24 26 28 29 32 34 37 39 43 46 49 53 57 61 64 67 66 63 61 60 60 62 64 65 65 65 66 66 65 64 61 59 58 58 59 59 59 60 61 62 62
25 25 24 25 27 30 31 34 36 38 41 44 47 49 53 56 60 63 67 67 64 62 60 60 62 63 64 64 64 64 65 64 63 61 58 57 57 57 58 59 59 59 60 61
29 28 27 27 29 32 33 35 37 39 41 43 46 49 52 56 59 63 66 68 66 63 61 60 61 62 63 63 63 63 63 63 62 60 58 57 56 56 56 57 58 58 58 59
32 31 30 29 29 34 34 35 38 40 42 44 46 49 52 55 59 62 65 68 67 64 62 60 60 62 62 62 62 62 62 62 61 59 57 56 55 55 55 55 56 56 56 56
35 34 33 32 30 35 36 38 40 43 44 45 47 49 52 55 58 62 65 67 67 65 62 60 60 61 61 61 60 61 61 61 60 58 57 55 54 54 54 54 55 55 55 55
38 36 35 35 35 37 36 39 42 44 46 47 48 50 52 55 58 61 64 66 67 66 63 60 59 60 60 60 59 59 60 60 59 57 56 54 53 53 53 53 54 54 55 56
38 37 38 38 39 42 39 41 44 46 48 48 49 50 52 55 57 60 63 65 67 66 64 60 58 58 59 58 58 58 58 58 58 56 54 53 52 52 51 51 52 54 54 54
Wind_Direction
333 333 334 334 333 330 327 325 322 319 317 316 317 316 316 318 317 316 317 318 320 321 324 326 327 329 330 330 330 330 329 329 327 326 325 324 324 323 322 322 321 319 317 313
338 341 340 340 339 334 330 325 321 319 319 320 321 320 318 319 318 318 318 320 322 324 326 328 330 331 332 332 332 331 330 329 328 327 326 326 326 326 325 324 323 321 317 314
345 344 343 343 341 338 333 330 328 327 326 324 324 324 320 321 320 320 322 324 326 328 329 331 332 333 334 334 333 332 331 330 329 328 328 328 328 327 327 326 325 322 319 315
349 348 348 347 346 343 341 338 335 333 331 329 328 328 323 324 323 324 326 328 329 331 332 333 334 335 335 335 334 333 332 331 331 330 330 330 330 330 330 329 328 325 322 318
358 356 355 354 352 349 346 342 338 336 335 332 328 329 327 328 327 328 330 331 333 334 334 334 335 336 336 335 334 334 333 333 332 332 332 333 333 333 333 332 331 328 326 322
12 8 5 2 359 354 350 346 343 341 339 338 336 334 332 333 332 332 333 335 335 335 334 334 336 337 337 336 335 335 335 334 334 334 334 334 335 335 335 335 334 332 330 328
27 20 14 9 5 1 356 353 352 352 351 349 344 340 336 336 336 336 337 338 336 335 334 335 337 338 338 337 337 337 336 336 335 336 336 337 337 338 339 338 338 337 336 334
39 29 22 17 13 9 5 1 359 358 357 356 350 345 342 341 341 340 340 338 337 336 336 337 338 339 338 338 338 338 338 337 337 338 338 339 340 341 342 342 342 342 342 342
47 38 30 25 20 16 13 9 4 360 359 1 358 351 350 348 345 342 340 339 337 337 336 338 339 340 340 340 340 340 339 339 339 340 341 342 343 344 345 346 346 347 347 347
53 44 35 29 24 20 16 12 8 5 2 2 3 356 355 350 346 343 341 340 339 337 337 339 340 341 341 341 341 341 341 341 341 342 343 345 346 347 349 350 350 351 352 352
56 46 38 30 26 22 17 14 11 8 6 3 2 358 356 352 348 345 343 341 339 338 339 340 342 342 342 342 343 343 342 342 343 344 345 347 348 350 352 353 353 354 355 356
54 42 35 29 23 20 15 13 11 9 8 4 3 359 357 355 351 348 345 343 341 340 340 342 343 343 344 344 344 344 344 344 345 346 347 349 350 352 354 355 356 358 358 359
37 30 23 21 19 15 12 9 8 8 7 5 3 1 358 357 354 351 347 344 343 341 342 343 344 345 345 345 346 346 346 346 347 348 349 350 352 354 356 357 359 360 1 2
343 2 5 8 10 7 6 4 4 4 5 4 2 1 359 357 355 353 349 346 344 343 343 344 345 346 347 347 347 347 348 348 348 350 351 352 353 355 357 359 1 2 3 4
309 332 346 353 357 358 359 358 358 359 -0 0 0 360 359 358 356 354 351 347 345 344 344 345 346 347 348 348 349 349 349 349 350 351 353 354 355 356 358 1 2 3 5 6
297 315 329 339 345 348 350 351 353 353 355 358 358 359 358 357 356 354 352 349 346 345 345 346 347 348 349 350 350 351 350 351 351 353 354 356 356 357 359 1 4 5 6 7
287 302 315 324 331 338 342 346 349 350 351 354 356 357 357 357 355 355 353 350 347 346 346 347 348 349 350 351 352 352 351 352 353 354 356 357 358 359 0 3 5 6 8 9
279 291 302 313 322 331 337 340 344 349 349 351 353 354 355 355 355 354 353 350 348 347 346 347 349 350 351 352 353 353 353 353 354 356 357 358 359 -0 2 4 6 7 9 10
274 284 296 306 315 325 329 334 339 344 348 349 351 352 353 354 354 353 353 351 349 347 347 348 349 350 351 353 354 354 354 355 356 357 358 359 -0 2 3 5 6 8 10 11
271 280 291 302 310 320 326 330 335 339 344 347 349 350 351 352 352 352 352 351 349 347 347 348 349 350 352 353 354 354 355 356 357 358 359 359 1 3 5 6 7 9 10 12
269 276 286 296 306 313 320 325 330 336 341 343 346 348 348 349 350 351 351 351 349 347 347 347 349 350 352 354 355 355 356 356 358 359 360 0 2 4 6 7 8 9 10 12
268 274 281 291 301 308 315 320 325 331 336 339 343 345 346 347 348 349 350 350 349 348 347 347 348 350 352 353 355 355 356 357 358 359 -0 1 2 4 7 8 9 10 11 12
266 272 279 288 298 302 309 314 319 325 331 336 339 342 344 345 346 348 348 349 349 348 347 347 348 350 351 353 355 355 356 357 358 359 0 1 2 4 7 9 10 11 12 12
264 270 277 284 292 296 303 309 315 321 326 331 336 339 341 342 344 345 347 348 348 347 346 346 347 349 351 352 354 355 356 357 358 359 0 1 2 4 6 8 10 11 12 12
263 269 276 282 288 290 298 304 310 316 321 327 332 335 339 340 341 343 344 346 347 347 346 345 346 348 350 352 354 355 356 357 358 359 0 1 1 2 4 5 8 10 11 12
263 269 275 280 285 289 295 300 306 311 316 322 328 332 335 337 339 340 342 344 346 346 345 345 345 347 349 351 353 355 356 357 358 359 360 1 1 2 3 4 5 7 10 11
Height
5885 5884 5881 5879 5876 5873 5870 5868 5866 5864 5861 5859 5856 5852 5848 5844 5839 5834 5828 5822 5816 5808 5799 5789 5779 5768 5757 5745 5731 5717 5701 5686 5671 5655 5638 5620 5602 5583 5566 5548 5531 5515 5500 5488
5884 5882 5880 5877 5875 5872 5869 5867 5864 5862 5859 5856 5853 5849 5844 5840 5835 5830 5823 5817 5809 5801 5791 5781 5771 5759 5747 5734 5720 5704 5689 5673 5657 5640 5621 5603 5585 5567 5550 5532 5515 5498 5484 5471
5882 5881 5878 5876 5874 5871 5869 5866 5863 5860 5857 5853 5850 5847 5841 5836 5830 5824 5818 5810 5802 5793 5783 5773 5762 5751 5738 5724 5709 5693 5678 5661 5643 5625 5606 5589 5572 5554 5537 5520 5503 5486 5470 5456
5881 5879 5877 5875 5872 5870 5867 5864 5861 5857 5854 5850 5846 5843 5837 5832 5825 5818 5811 5804 5795 5786 5775 5765 5754 5742 5729 5714 5698 5683 5666 5648 5629 5610 5591 5574 5557 5541 5523 5505 5488 5472 5456 5441
5881 5878 5876 5874 5872 5869 5866 5863 5859 5855 5851 5847 5842 5838 5833 5826 5819 5812 5805 5797 5788 5778 5768 5758 5746 5734 5720 5704 5688 5672 5654 5635 5616 5597 5579 5561 5544 5526 5508 5491 5475 5460 5444 5427
5880 5878 5875 5873 5870 5867 5864 5862 5858 5854 5849 5845 5838 5832 5827 5820 5813 5806 5799 5790 5781 5771 5761 5750 5738 5725 5711 5695 5678 5661 5643 5624 5605 5586 5568 5550 5533 5515 5498 5481 5464 5448 5432 5413
5879 5877 5875 5872 5869 5866 5862 5859 5856 5851 5846 5841 5834 5828 5823 5816 5808 5800 5792 5784 5775 5765 5754 5743 5731 5717 5702 5686 5669 5651 5633 5615 5596 5577 5558 5540 5522 5504 5485 5468 5452 5435 5418 5398
5879 5877 5874 5871 5868 5865 5860 5856 5852 5847 5842 5838 5832 5825 5820 5811 5803 5794 5786 5778 5769 5758 5748 5736 5724 5710 5694 5677 5660 5642 5624 5606 5587 5568 5550 5531 5513 5495 5476 5458 5440 5422 5403 5381
5878 5876 5873 5870 5867 5864 5860 5855 5850 5845 5840 5835 5828 5821 5814 5806 5798 5790 5781 5772 5762 5752 5741 5729 5717 5702 5686 5669 5652 5634 5616 5597 5579 5560 5542 5524 5506 5488 5470 5452 5433 5413 5392 5370
5877 5875 5873 5870 5866 5862 5858 5854 5849 5842 5835 5830 5825 5817 5811 5802 5794 5786 5776 5767 5756 5746 5735 5723 5709 5694 5678 5661 5644 5626 5608 5589 5571 5553 5535 5517 5500 5482 5465 5446 5428 5408 5386 5364
5876 5874 5872 5869 5865 5861 5858 5853 5847 5842 5835 5827 5821 5817 5809 5799 5790 5781 5771 5761 5751 5740 5728 5716 5702 5687 5670 5653 5636 5619 5601 5582 5564 5547 5530 5513 5496 5478 5461 5442 5423 5403 5383 5361
5875 5873 5870 5867 5864 5859 5855 5851 5846 5842 5835 5827 5820 5816 5805 5796 5785 5776 5766 5756 5745 5734 5722 5709 5695 5680 5664 5647 5630 5613 5595 5577 5560 5542 5526 5509 5492 5476 5458 5440 5421 5402 5381 5361
5874 5872 5869 5866 5864 5859 5854 5850 5845 5840 5834 5826 5818 5815 5802 5792 5782 5771 5761 5750 5739 5728 5716 5703 5689 5674 5658 5641 5625 5607 5590 5572 5555 5539 5522 5506 5490 5474 5457 5439 5421 5402 5382 5363
5872 5870 5868 5866 5861 5857 5853 5848 5843 5837 5831 5825 5817 5809 5800 5789 5778 5767 5756 5745 5734 5722 5710 5697 5683 5668 5652 5636 5620 5603 5586 5568 5552 5536 5520 5504 5488 5473 5456 5438 5421 5403 5385 5366
5870 5868 5866 5863 5859 5855 5851 5847 5841 5835 5829 5822 5815 5806 5796 5786 5774 5763 5752 5740 5729 5717 5705 5692 5678 5663 5647 5632 5615 5599 5582 5565 5549 5534 5518 5502 5487 5471 5455 5439 5422 5405 5387 5369
5867 5866 5863 5861 5857 5853 5850 5845 5839 5832 5826 5819 5811 5803 5793 5783 5771 5760 5748 5736 5724 5713 5700 5687 5674 5659 5643 5627 5611 5595 5579 5563 5547 5532 5517 5501 5486 5471 5456 5440 5424 5408 5391 5374
5865 5863 5861 5858 5855 5852 5848 5843 5837 5831 5823 5816 5807 5799 5789 5779 5768 5756 5744 5732 5720 5708 5696 5683 5669 5655 5639 5624 5608 5592 5577 5561 5546 5531 5515 5501 5486 5472 5457 5442 5426 5411 5395 5379
5862 5859 5857 5855 5853 5849 5846 5839 5834 5828 5820 5812 5804 5795 5786 5775 5764 5752 5741 5728 5716 5704 5692 5679 5666 5651 5636 5621 5605 5590 5575 5560 5545 5529 5515 5501 5487 5473 5458 5443 5429 5415 5400 5384
5857 5855 5853 5851 5848 5845 5841 5835 5829 5823 5818 5809 5800 5791 5782 5771 5761 5749 5737 5724 5712 5700 5688 5675 5662 5648 5633 5618 5603 5588 5574 5559 5544 5529 5515 5502 5489 5475 5460 5446 5432 5418 5404 5390
5852 5851 5849 5846 5841 5839 5837 5830 5823 5818 5811 5804 5795 5786 5777 5767 5757 5747 5734 5721 5708 5696 5684 5672 5659 5645 5630 5616 5601 5587 5573 5558 5544 5530 5516 5503 5490 5476 5462 5448 5435 5421 5408 5394
5847 5846 5844 5840 5836 5834 5831 5824 5818 5813 5807 5799 5790 5782 5773 5764 5754 5743 5731 5718 5705 5693 5681 5668 5656 5642 5628 5614 5600 5586 5572 5558 5544 5530 5517 5505 5491 5478 5464 5451 5438 5424 5411 5398
5840 5840 5838 5836 5833 5830 5824 5818 5813 5809 5802 5794 5786 5778 5769 5760 5750 5739 5727 5715 5702 5690 5677 5665 5653 5640 5626 5612 5598 5585 5571 5557 5544 5531 5518 5506 5493 5481 5467 5454 5441 5429 5417 5405
5833 5833 5831 5831 5830 5823 5818 5814 5808 5803 5797 5789 5782 5774 5765 5756 5746 5735 5724 5712 5699 5686 5674 5662 5650 5637 5624 5611 5597 5584 5570 5556 5543 5530 5518 5506 5494 5483 5471 5459 5447 5435 5423 5411
5826 5825 5823 5823 5823 5817 5812 5807 5802 5796 5790 5784 5777 5770 5761 5752 5742 5732 5721 5709 5696 5683 5671 5659 5647 5635 5622 5609 5596 5583 5569 5556 5543 5530 5518 5507 5495 5484 5473 5462 5451 5439 5428 5417
5818 5817 5816 5814 5814 5810 5807 5801 5795 5790 5784 5778 5772 5764 5756 5748 5738 5728 5717 5705 5693 5681 5668 5657 5645 5633 5621 5608 5595 5582 5569 5556 5543 5531 5519 5508 5496 5485 5474 5464 5454 5443 5431 5420
5811 5811 5808 5806 5804 5800 5800 5794 5789 5784 5778 5772 5766 5759 5751 5743 5734 5724 5713 5702 5690 5678 5666 5654 5642 5631 5619 5606 5594 5581 5568 5556 5543 5532 5520 5509 5499 5488 5477 5466 5454 5444 5434 5424